Regional Weather Roundup
Issued by NWS Sterling, VA

Home | Current Version | Previous Version | Text Only | Print | Product List | Glossary Off
Versions: 1 2 3 4 5 6 7 8 9 10 11 12 13 14 15 16 17 18 19 20 21 22 23 24 25 26

000
ASUS41 KLWX 270511
RWRLWX

REGIONAL WEATHER ROUNDUP
NATIONAL WEATHER SERVICE BALTIMORE MD/WASHINGTON DC
100 AM EDT FRI MAY 27 2016

Note: "FAIR" indicates few or no clouds below 12,000 feet
with no significant weather and/or obstructions to visibility.
 TC=TEMPERATURE CELSIUS

 * =Non NWS site. Station does not report precipitation (e.g. rain,
    snow, etc.), thunder, or fog.

DCZ001-MDZ009-015-VAZ040>042-051-053>054-270600-
WASHINGTON METRO

CITY           SKY/WX    TMP DP  RH WIND       PRES   REMARKS
WASHINGTON NAT MOCLDY    74  63  68 S8        30.05R
DULLES         FAIR      73  63  70 S6        30.04S
ANDREWS AFB    CLEAR     73  63  72 S7        30.04R
FT BELVOIR     FAIR      67  65  94 CALM      30.04R
QUANTICO       FAIR      74  64  71 CALM      30.05R
COLLEGE PARK*  FAIR      70  63  78 CALM      30.04R
LEESBURG*      MOCLDY    73  68  83 S7        30.05R
MANASSAS*      FAIR      68  66  94 CALM      30.05R

$$

MDZ006>007-011-014-270600-
BALTIMORE METRO

CITY           SKY/WX    TMP DP  RH WIND       PRES   REMARKS
BWI AIRPORT    PTCLDY    70  63  78 CALM      30.04R
MD SCIENCE CTR   N/A     75  63  66 MISG      30.05R
MARTIN STATE   PTCLDY    73  66  78 S3        30.06R
ANNAPOLIS      PTCLDY    71  65  81 S7        30.04S
FORT MEADE*    PTCLDY    64  63  94 CALM      30.07R

$$

MDZ012-015-019>023-270600-
MARYLAND EASTERN SHORE

CITY           SKY/WX    TMP DP  RH WIND       PRES   REMARKS
OCEAN CITY     PTCLDY    70  64  81 SW9       30.09F
SALISBURY      CLEAR     70  64  81 S6        30.08S
BAY BRIDGE AP* CLEAR     73  66  78 S8        30.04S
CAMBRIDGE*     CLEAR     72  64  78 S6        30.05F
EASTON*        CLEAR     75  70  83 S9        30.09S

$$

MDZ017>025-270600-
SOUTHERN MARYLAND

CITY           SKY/WX    TMP DP  RH WIND       PRES   REMARKS
PATUXENT RIVER PTCLDY    74  63  68 S10       30.05S
ST INIGOES     CLEAR     74  65  73 S9        30.05F
LEONARDTOWN*   CLEAR     73  63  68 S6        30.07S

$$

MDZ003>005-270600-
NORTH CENTRAL MARYLAND

CITY           SKY/WX    TMP DP  RH WIND       PRES   REMARKS
FREDERICK*     CLOUDY    72  68  88 CALM      30.05S
HAGERSTOWN APT CLOUDY    74  65  73 SW5       30.04S
WESTMINSTER*   CLOUDY    75  72  88 CALM      30.06S

$$

MDZ501>502-270600-
WESTERN MARYLAND

CITY           SKY/WX    TMP DP  RH WIND       PRES   REMARKS
OAKLAND*       PTCLDY    61  57  88 SW6       30.16S
CUMBERLAND*    CLOUDY    66  66 100 E5        30.10S

$$

VAZ025>031-270600-
SHENANDOAH VALLEY

CITY           SKY/WX    TMP DP  RH WIND       PRES   REMARKS
WINCHESTER*    FAIR      68  64  88 CALM      30.06R FOG
FRONT ROYAL*   FAIR      66  64  94 S3        30.05S
LURAY*         FAIR      68  64  88 SW6       30.07S
NEW MARKET*    FAIR      64  63  94 CALM      30.07S
STAUNTON*      FAIR      64  61  91 CALM      30.12R
WAYNESBORO*    FAIR      64  60  88 CALM      30.11R

$$

WVZ021-048>050-054>055-270600-
EASTERN WEST VIRGINIA PANHANDLE

CITY           SKY/WX    TMP DP  RH WIND       PRES   REMARKS
MARTINSBURG    MOCLDY    69  66  90 SW3       30.04R
PETERSBURG*    FAIR      63  63  99 CALM      30.10R FOG

$$

VAZ036>039-050-270600-
CENTRAL FOOTHILLS

CITY           SKY/WX    TMP DP  RH WIND       PRES   REMARKS
CHARLOTTESVILL CLOUDY    74  63  68 CALM      30.07R
CULPEPER*      FAIR      67  66  97 CALM      30.06R
ORANGE*        FAIR      68  68 100 CALM      30.08R
GORDONSVILLE*  FAIR      67  66  97 CALM      30.06R
WARRENTON*     FAIR      67  61  80 CALM      30.04R

$$

VAZ055>057-270600-
NORTH AND CENTRAL PIEDMONT

CITY           SKY/WX    TMP DP  RH WIND       PRES   REMARKS
FREDERICKSBRG* NOT AVBL
STAFFORD*      FAIR      65  63  91 CALM      30.09R

$$

NCZ024-NYZ072-PAZ021-071-VAZ022-071-270600-
OTHER REGIONAL OBSERVATIONS

CITY           SKY/WX    TMP DP  RH WIND       PRES   REMARKS
NEW YORK CITY  CLOUDY    76  52  43 VRB3      30.07F
PHILADELPHIA   MOCLDY    75  61  61 SW6       30.06S
PITTSBURGH     PTCLDY    71  63  75 CALM      30.06R
ROANOKE        MOCLDY    67  65  93 N3        30.13R
RICHMOND       FAIR      72  64  76 S9        30.07S
RALEIGH        PTCLDY    73  64  73 SW8       30.12R

$$

ANZ530>537-270600-
MARINE OBSERVATIONS

STATION/POSITION TIME  TEMP    WIND        PRES
                       AIR SEA DIR/SP/G
                 (UTC) (F)     (DEG/KT/KT) (MB)
THOMAS PT LIGHT  0500   71 65  180/ 16/ 16 1018.5R
BALT KEY BRIDGE  0400   74     160/ 11/ 12 1016.7F
COVE POINT       0400   69     190/ 12/ 14 1018.3F
LEWISETTA        0400   76 72  210/ 10/ 12 1017.7S
SOLOMONS ISLAND  0400   74 65  190/ 10/ 11   N/A
PINEY POINT      0400          190/  8/ 10   N/A

$$





USA.gov is the U.S. government's official web portal to all federal, state and local government web resources and services.